Location: Carlisle
(34.5501°N, 84.5969°W)
Time: 17:03:00
(UTC+00:00)

X-37B - Visible Passes

Search period start: 03 December 2022 00:00
Search period end: 13 December 2022 00:00
Orbit: 277 x 277 km, 45.0° (Epoch: 01 November)

Date Brightness Start Highest point End Pass type
(mag) Time Alt. Az. Time Alt. Az. Time Alt. Az.
04 Dec 1.9 23:28:06 10° S 23:29:52 18° SE 23:30:16 17° SE visible
05 Dec 0.6 23:28:08 10° SW 23:30:26 39° SE 23:31:11 29° E visible
06 Dec -0.2 23:28:39 10° WSW 23:31:05 83° NNW 23:32:02 32° NE visible
07 Dec 1.0 23:29:29 10° W 23:31:47 36° NNW 23:32:48 24° NNE visible
08 Dec 1.9 23:30:36 10° WNW 23:32:34 21° NNW 23:33:32 17° N visible
09 Dec 2.4 23:31:57 10° NW 23:33:24 14° NNW 23:34:13 13° N visible
10 Dec 2.7 23:33:42 10° NNW 23:34:17 11° NNW 23:34:52 10° N visible
